Date,TemperatureHighF,TemperatureAvgF,TemperatureLowF,DewpointHighF,DewpointAvgF,DewpointLowF,HumidityHigh,HumidityAvg,HumidityLow,PressureMaxIn,PressureMinIn,WindSpeedMaxMPH,WindSpeedAvgMPH,GustSpeedMaxMPH,PrecipitationSumIn
2013-3-9,50.4,33.9,26.3,26.7,24.9,22.5,90,73,34,30.42,30.35,0,0,3,0.00
2013-3-10,51.6,36.8,24.0,36.7,30.6,22.4,96,80,49,30.49,30.42,3,1,8,0.00
2013-3-11,57.7,44.0,28.7,48.5,39.8,27.5,98,86,60,30.43,30.19,4,1,13,0.00
2013-3-12,56.8,53.3,42.5,56.0,50.0,36.8,97,89,79,30.19,29.81,7,3,25,0.97
2013-3-13,52.1,40.7,30.2,35.8,30.4,25.5,95,70,39,30.06,29.95,3,1,16,0.00
2013-3-14,43.6,36.1,28.5,24.5,16.6,12.1,68,46,30,30.12,30.04,4,2,23,0.00
2013-3-15,50.6,38.1,23.4,26.6,19.9,12.7,73,49,32,30.17,29.87,6,1,18,0.00
2013-3-16,41.3,39.3,35.5,32.8,28.7,22.1,89,66,48,29.96,29.84,8,2,8,0.02
2013-3-17,41.1,36.8,29.4,32.2,23.9,18.0,97,63,42,30.27,30.02,9,2,21,0.00
2013-3-18,42.6,36.4,28.6,41.5,28.6,18.4,96,74,54,30.48,30.08,7,3,16,0.29
2013-3-19,52.6,43.7,37.7,42.9,38.2,22.6,98,83,44,30.00,29.82,3,1,15,0.34
2013-3-20,49.6,39.5,25.8,30.8,20.7,14.8,88,50,25,30.07,29.92,4,1,24,0.00
2013-3-21,38.7,34.6,29.4,28.0,20.0,12.6,86,57,40,29.92,29.77,10,1,10,0.00
2013-3-22,42.4,33.9,24.8,21.1,18.0,11.0,66,52,40,30.02,29.92,3,1,16,0.00
2013-3-23,50.7,43.1,24.0,22.8,20.8,18.6,83,43,30,30.08,29.96,13,2,14,0.00
2013-3-24,46.6,35.5,23.5,28.0,21.9,17.4,86,60,32,30.10,29.80,3,1,11,0.00
2013-3-25,39.0,35.5,32.5,33.6,31.6,28.7,95,86,72,29.82,29.64,6,2,11,0.17
2013-3-26,51.4,43.3,32.6,37.5,30.8,25.0,98,67,38,29.92,29.73,10,1,10,0.12
2013-3-27,52.5,42.7,30.7,33.6,29.1,23.9,95,62,33,30.13,30.01,3,1,15,0.00
2013-3-28,49.7,44.6,30.3,30.4,27.3,25.2,87,52,41,30.22,30.12,11,1,13,0.00
2013-3-29,56.1,45.8,33.9,31.0,28.0,25.2,76,52,32,30.30,30.20,2,1,11,0.00
2013-3-30,59.9,45.1,28.2,33.5,26.9,21.8,92,55,23,30.32,30.20,2,1,11,0.00
2013-3-31,55.2,45.3,30.4,38.8,33.1,26.9,97,65,41,30.27,30.15,14,2,14,0.00
2013-4-1,65.6,52.2,40.7,48.8,37.4,23.3,99,60,37,29.96,29.76,18,2,19,0.01
2013-4-2,47.2,41.0,25.4,22.0,15.0,12.2,77,37,26,30.20,30.03,12,2,22,0.00
2013-4-3,49.3,37.7,24.3,17.7,14.5,10.1,73,41,23,30.42,30.24,4,1,17,0.00
2013-4-4,52.9,42.7,22.7,30.7,22.6,10.8,79,47,25,30.53,30.13,10,2,13,2.99
2013-4-5,40.8,38.6,37.2,35.9,34.3,30.7,95,85,68,30.13,30.02,11,0,11,0.11
2013-4-6,47.9,36.3,30.0,28.4,27.5,26.5,89,72,43,30.35,30.31,3,0,8,0.00
2013-4-7,58.7,45.3,28.2,44.7,36.8,26.3,96,74,48,30.35,30.06,17,2,18,0.00
2013-4-8,80.5,61.6,48.6,51.5,47.0,43.9,85,62,32,30.11,30.02,11,1,11,0.00
2013-4-9,86.3,71.9,57.7,54.6,51.0,43.6,79,52,24,30.05,29.96,14,1,14,0.00
2013-4-10,90.1,75.1,60.1,58.5,54.7,50.7,93,52,31,29.97,29.80,15,2,17,0.10
2013-4-11,60.5,59.6,58.5,59.4,58.4,57.7,97,96,93,29.94,29.84,2,0,3,0.30
2013-4-14,64.2,56.7,35.9,46.8,36.0,26.7,98,49,26,30.21,30.07,18,1,18,0.00
2013-4-15,57.2,50.4,45.6,43.9,39.0,32.8,86,66,51,30.39,30.19,10,2,10,0.00
2013-4-16,70.3,58.2,44.1,55.7,50.4,42.8,97,77,58,30.39,30.17,16,2,16,0.00
2013-4-17,69.7,60.2,44.6,59.5,51.6,41.5,92,75,52,30.31,30.14,10,1,10,0.00
2013-4-18,64.6,56.0,42.4,58.6,51.6,40.2,97,85,66,30.34,30.11,11,1,12,0.00
2013-4-19,75.2,65.7,57.7,65.4,61.3,56.6,97,87,66,30.11,29.71,24,4,24,0.22
2013-4-20,64.7,52.6,45.9,63.5,38.9,25.9,97,64,32,30.33,29.73,14,1,14,0.38
2013-4-21,55.8,43.1,30.4,31.8,26.2,19.4,92,53,28,30.65,30.33,13,1,13,12.00
2013-4-22,30.4,29.8,29.2,28.3,28.1,27.7,94,93,92,30.65,30.64,0,0,0,0.50
2013-4-29,53.5,53.3,53.0,52.7,52.5,52.2,98,97,97,30.20,30.19,5,2,5,0.62
2013-4-30,67.2,56.6,44.9,52.5,46.3,34.8,98,71,36,30.34,30.18,14,3,14,0.00
2013-5-1,64.5,51.5,37.8,46.7,41.0,30.4,95,71,31,30.49,30.33,18,3,18,0.00
2013-5-2,68.3,52.7,36.6,47.1,41.2,35.8,98,70,39,30.48,30.36,10,1,10,0.00
2013-5-3,59.7,50.7,39.5,45.0,41.8,36.7,96,74,44,30.46,30.37,14,3,15,0.00
2013-5-4,66.5,51.6,40.4,47.6,42.0,36.4,98,73,38,30.39,30.27,15,2,15,0.00
2013-5-5,58.6,48.5,39.2,44.2,41.3,37.6,95,77,52,30.30,30.24,13,2,13,0.00
2013-5-6,65.8,52.4,40.3,54.4,48.4,39.2,98,87,64,30.26,30.16,10,2,10,0.00
2013-5-7,66.5,57.4,50.5,59.6,55.1,49.4,99,92,78,30.17,30.06,10,3,10,0.06
2013-5-8,75.0,63.5,57.1,63.7,57.0,51.5,99,82,47,30.08,29.97,12,1,12,0.07
2013-5-9,74.2,62.8,55.4,59.4,55.9,53.5,98,80,50,30.02,29.93,16,1,16,0.01
2013-5-10,86.7,69.2,54.1,61.9,56.1,47.2,99,68,28,30.04,29.91,11,1,11,0.00
2013-5-11,79.0,66.1,61.8,67.6,63.2,56.6,98,91,63,29.98,29.74,17,1,17,1.51
2013-5-12,69.6,60.0,45.2,62.1,46.5,26.5,99,67,23,30.01,29.72,18,1,18,0.14
2013-5-13,60.3,48.5,35.7,37.8,32.1,23.9,93,57,30,30.16,30.01,15,1,18,29.28
2013-5-14,63.0,49.1,34.2,41.0,31.9,25.6,93,57,26,30.20,30.09,11,1,11,29.28
2013-5-15,76.7,62.8,47.9,59.1,52.5,40.7,90,71,46,30.14,29.73,14,1,14,29.28
2013-5-16,82.1,68.9,60.6,62.3,60.4,58.1,94,76,47,29.86,29.73,11,0,16,3.66
2013-5-17,79.8,66.0,51.0,61.0,48.1,41.3,92,57,27,30.22,29.86,13,1,13,0.00
2013-5-18,66.6,59.4,51.5,56.5,53.5,47.8,96,81,59,30.32,30.21,9,0,9,0.10
2013-5-19,61.9,59.5,56.6,61.5,58.8,55.5,99,98,96,30.30,30.17,9,1,9,0.21
2013-5-20,82.6,70.6,61.9,71.0,66.3,61.6,100,87,60,30.19,30.01,11,1,11,0.00
2013-5-21,66.0,64.8,64.4,64.8,64.0,63.4,98,97,96,30.03,29.98,5,0,5,0.00
2013-5-22,84.6,75.0,68.0,72.6,68.6,65.6,97,81,67,29.94,29.88,11,1,11,0.00
2013-5-23,81.7,71.9,65.1,72.7,67.4,63.5,96,86,69,29.95,29.79,15,2,16,0.02
2013-5-24,67.5,57.0,44.6,66.0,54.9,41.2,99,93,77,30.04,29.73,12,1,14,0.40
2013-5-25,61.4,52.5,44.1,43.4,39.8,33.9,95,65,39,30.10,30.00,19,2,19,0.03
2013-5-26,71.2,57.1,44.2,43.5,38.4,34.5,90,54,28,30.24,30.08,13,1,14,3.36
2013-5-27,76.3,58.9,37.9,49.0,41.6,35.1,97,60,25,30.30,30.19,12,0,12,3.36
2013-5-28,65.5,59.1,50.8,62.5,57.2,48.8,98,94,79,30.25,30.14,7,0,7,0.18
2013-5-29,91.1,75.2,59.0,71.8,65.2,58.2,98,74,40,30.15,30.08,14,1,14,7.68
2013-5-30,94.5,80.3,67.6,70.8,66.8,62.3,92,67,36,30.19,30.11,10,1,10,7.68
2013-5-31,93.2,79.7,67.0,70.8,65.8,58.7,96,67,35,30.18,30.05,12,1,13,7.68
2013-6-1,90.2,77.9,64.8,71.2,68.0,63.4,97,74,45,30.08,29.96,16,2,17,7.68
2013-6-2,89.2,77.1,67.2,71.1,68.4,65.8,96,76,52,29.98,29.85,20,2,21,0.18
2013-6-3,77.8,71.9,66.8,72.1,69.4,66.2,98,92,78,29.93,29.82,9,1,10,1.34
2013-6-4,77.7,65.7,53.8,66.5,52.6,43.9,99,68,32,30.13,29.90,9,0,9,12.48
2013-6-5,82.3,63.6,47.1,56.3,51.3,44.7,98,69,30,30.22,30.12,8,0,8,12.48
2013-6-6,75.5,64.0,50.9,63.8,57.9,50.2,99,82,53,30.16,29.99,12,1,14,0.02
2013-6-7,72.3,67.8,62.9,72.0,67.2,61.0,99,98,93,29.99,29.55,13,1,13,2.23
2013-6-8,77.0,68.8,60.7,70.8,65.6,60.0,99,90,74,30.10,29.54,9,1,11,0.15
2013-6-9,85.3,71.8,61.2,67.4,63.8,59.0,100,79,45,30.22,30.10,8,0,8,70.08
2013-6-10,74.8,68.7,62.3,72.3,67.8,61.4,99,97,91,30.18,29.84,11,1,11,0.45
2013-6-11,84.7,75.1,68.3,70.9,67.9,63.3,99,80,54,29.84,29.71,16,2,18,0.02
2013-6-12,87.3,74.3,64.3,67.0,63.1,59.3,91,70,44,29.88,29.80,15,1,15,81.36
2013-6-13,84.3,70.2,64.6,75.5,65.0,57.8,98,84,70,29.88,29.44,10,1,11,1.21
2013-6-14,74.3,60.6,54.5,63.7,57.6,54.0,99,91,55,29.95,29.48,13,1,16,0.64
2013-6-15,83.2,71.5,56.1,65.3,60.0,55.3,100,71,41,30.06,29.95,9,0,9,0.01
2013-6-16,86.0,71.1,57.6,70.6,64.7,57.0,99,83,50,30.04,29.87,15,1,15,0.34
2013-6-17,87.5,73.4,63.9,73.9,68.1,63.6,99,85,55,29.97,29.88,12,0,12,0.04
2013-6-18,80.1,69.5,63.0,74.9,67.8,62.6,99,95,81,29.93,29.82,8,0,8,1.52
2013-6-19,79.2,69.6,54.5,63.5,57.7,52.6,99,68,44,30.20,29.97,5,1,6,0.00
2013-6-20,80.3,65.2,51.3,62.0,54.2,49.2,99,72,41,30.31,30.20,10,1,10,0.00
2013-6-21,82.0,66.5,49.6,62.0,55.2,49.1,99,71,41,30.35,30.29,7,0,7,0.00
2013-6-22,87.3,67.9,50.9,64.8,58.0,50.4,99,74,39,30.30,30.18,11,0,11,0.00
2013-6-23,86.2,72.6,57.5,73.7,67.1,56.3,98,84,62,30.24,30.09,14,1,14,0.00
2013-6-24,94.5,78.3,67.0,76.7,71.9,63.6,99,83,45,30.13,30.02,11,1,12,0.17
2013-6-25,93.4,79.4,66.4,75.6,70.3,64.6,99,77,47,30.04,29.91,19,1,19,0.25
2013-6-26,82.4,78.1,75.2,75.6,73.9,71.2,92,87,80,29.86,29.81,12,0,12,0.00
2013-6-28,88.4,79.9,69.2,75.3,71.6,68.2,98,78,56,29.60,29.51,13,1,13,0.40
2013-6-29,86.5,75.0,65.4,76.0,70.7,65.0,99,88,64,29.74,29.52,10,1,10,0.07
2013-6-30,82.3,75.4,69.2,77.2,72.8,68.3,99,92,82,29.92,29.74,11,1,11,0.01
2013-7-1,82.0,74.7,72.9,75.9,73.2,71.7,98,95,79,30.07,29.91,12,1,12,0.30
2013-7-2,85.5,76.2,71.4,77.4,73.6,70.8,98,92,73,30.23,30.06,14,1,14,0.10
2013-7-3,87.3,77.1,68.9,78.1,73.6,68.6,100,90,71,30.28,30.20,10,1,12,0.00
2013-7-4,90.2,79.6,71.8,76.7,73.5,70.9,99,83,61,30.30,30.22,14,1,15,0.00
2013-7-5,90.6,80.3,69.7,76.8,73.3,68.8,99,81,57,30.26,30.15,13,1,13,0.00
2013-7-6,95.3,83.5,73.6,78.2,74.7,72.0,98,77,50,30.20,30.08,11,1,13,0.00
2013-7-7,94.7,82.9,71.1,77.1,74.3,69.3,99,77,54,30.13,29.99,14,1,14,0.00
2013-7-8,89.0,75.9,68.4,74.5,70.5,66.1,99,85,57,30.11,30.03,11,0,15,0.51
2013-7-9,89.0,78.0,68.6,78.7,73.9,68.3,100,88,63,30.11,30.03,10,0,11,0.02
2013-7-10,88.1,79.7,71.6,78.2,74.9,70.7,98,86,63,30.06,29.87,11,1,11,0.00
2013-7-11,86.8,77.7,72.7,75.9,73.6,71.5,98,88,66,29.93,29.86,9,1,9,0.13
2013-7-12,75.3,72.3,70.0,72.2,71.0,69.3,99,96,86,30.06,29.92,8,1,8,0.76
2013-7-13,86.4,77.9,70.7,78.7,74.2,70.4,100,89,70,30.32,30.06,6,1,12,0.00
2013-7-14,93.0,81.0,72.9,77.4,74.3,69.5,99,82,52,30.37,30.29,7,0,7,0.00
2013-7-15,96.3,83.1,72.3,78.4,74.7,71.4,99,79,47,30.31,30.16,8,0,8,0.00
2013-7-16,95.0,83.2,74.4,76.1,72.8,67.1,97,74,42,30.21,30.15,9,0,9,0.00
2013-7-17,98.8,82.1,69.0,77.9,72.0,68.1,99,75,42,30.20,30.11,7,0,8,0.00
2013-7-18,99.2,85.2,72.9,80.5,76.3,70.4,98,77,49,30.12,29.99,8,0,9,0.00
2013-7-19,96.9,86.5,77.4,80.7,77.4,75.2,96,76,54,30.03,29.86,14,1,17,0.00
2013-7-20,93.5,84.1,72.9,78.9,76.9,70.6,97,80,57,29.92,29.79,13,1,14,0.27
2013-7-21,95.0,80.2,70.4,78.6,73.4,69.5,99,82,46,29.94,29.88,7,0,7,0.51
2013-7-22,78.9,76.5,76.1,75.1,74.8,74.3,96,94,87,29.84,29.80,6,0,6,0.00
2013-7-23,87.7,77.9,71.4,79.7,75.0,70.6,99,91,69,29.81,29.62,8,0,9,0.78
2013-7-24,89.2,76.9,68.2,74.6,70.0,61.7,100,81,55,29.93,29.67,7,0,7,0.00
2013-7-25,69.3,65.4,62.6,63.1,60.5,56.9,96,84,73,30.05,29.91,8,1,8,0.01
2013-7-26,85.3,70.6,61.1,70.1,64.2,60.0,98,82,47,30.09,30.01,6,0,6,0.00
2013-7-27,86.0,71.7,61.9,70.7,65.3,61.3,100,82,52,30.10,29.98,8,0,8,0.00
2013-7-28,82.2,72.7,62.6,73.8,69.1,62.0,99,89,72,30.03,29.94,11,1,11,0.90
2013-7-29,86.3,73.2,62.3,74.5,66.6,58.8,100,82,46,30.15,29.97,8,0,8,0.00
2013-7-30,84.9,70.0,56.4,63.5,60.0,55.8,99,74,41,30.21,30.14,8,0,8,0.00
2013-7-31,86.7,70.9,56.9,67.9,62.5,56.3,100,78,40,30.19,30.07,7,0,7,0.00
2013-8-1,75.3,69.2,65.4,70.8,66.5,63.6,98,91,82,30.07,29.91,10,0,11,0.27
2013-8-3,81.5,71.9,64.3,70.3,67.2,63.5,98,86,63,29.97,29.91,8,0,9,0.02
2013-8-4,82.8,70.1,60.2,66.6,60.8,56.9,100,76,45,30.01,29.88,9,1,9,0.00
2013-8-5,80.7,67.5,55.9,61.0,55.9,48.3,95,70,34,30.10,30.01,5,0,7,0.00
2013-8-6,80.8,66.4,53.4,67.6,61.7,52.8,100,86,50,30.15,30.07,7,0,7,0.00
2013-8-7,76.5,72.1,70.4,71.8,69.8,67.7,97,93,77,30.15,30.08,7,1,11,0.43
2013-8-8,87.0,77.1,71.1,76.5,72.4,69.3,96,86,68,30.10,30.03,12,1,13,0.00
2013-8-9,89.9,79.6,74.5,78.6,75.7,72.4,98,89,67,30.05,29.85,14,1,14,0.20
2013-8-10,84.5,76.2,68.1,75.0,70.2,64.1,99,83,52,30.08,29.91,5,0,6,0.00
2013-8-11,86.7,72.9,61.5,69.6,65.9,60.8,99,81,50,30.15,30.05,8,0,8,0.00
2013-8-12,87.5,73.7,63.4,75.7,69.8,63.1,100,89,57,30.07,29.95,4,0,6,0.79
2013-8-13,83.9,73.8,68.4,76.4,71.5,68.1,100,93,66,29.95,29.71,10,0,10,1.46
2013-8-14,71.5,65.8,54.9,70.5,64.8,54.0,98,97,93,30.09,29.77,3,0,3,0.06
2013-8-15,80.5,64.5,51.4,59.3,54.5,50.3,98,74,38,30.19,30.09,5,0,5,0.00
2013-8-16,81.2,65.4,50.1,62.2,56.0,49.6,100,76,37,30.23,30.16,6,0,6,0.00
2013-8-17,81.3,65.9,53.5,64.6,58.0,53.2,100,79,43,30.30,30.23,7,0,7,0.00
2013-8-18,75.6,67.1,59.3,68.0,62.2,58.5,98,85,64,30.27,30.15,5,0,5,0.00
2013-8-19,78.5,68.7,59.5,69.0,64.0,58.7,98,86,65,30.19,30.09,7,0,7,0.00
2013-8-20,89.8,74.3,61.6,72.4,67.3,61.3,100,81,48,30.17,30.10,6,0,6,0.00
2013-8-21,89.2,75.7,65.1,74.9,69.5,64.8,100,83,57,30.22,30.10,8,0,8,0.00
2013-8-22,84.9,74.1,69.5,75.6,70.8,67.8,99,90,68,30.11,29.93,9,1,11,0.02
2013-8-23,79.9,71.5,63.3,70.6,66.9,62.2,99,86,64,30.10,29.92,6,0,6,0.00
2013-8-24,81.2,67.3,56.0,66.7,60.8,54.9,99,82,46,30.37,30.10,6,0,6,0.01
2013-8-25,84.8,65.3,50.5,64.9,56.1,50.0,100,77,38,30.44,30.30,9,0,9,0.00
2013-8-26,85.8,70.5,57.3,68.5,63.5,55.6,98,80,51,30.31,29.99,13,1,13,0.00
2013-8-27,89.7,77.5,68.7,72.6,69.2,67.1,97,77,49,29.99,29.88,8,1,8,0.00
2013-8-28,76.3,71.0,65.3,74.9,70.4,64.7,99,98,89,29.93,29.84,4,0,4,0.46
2013-8-29,80.8,70.6,64.2,72.7,68.4,63.5,100,93,70,30.06,29.87,5,0,5,0.00
2013-8-30,80.7,71.3,63.0,72.6,68.1,62.4,100,90,72,30.06,29.92,9,0,10,0.00
2013-8-31,88.3,76.6,65.9,75.2,71.4,65.6,100,85,60,29.94,29.83,8,1,14,0.01
2013-9-1,91.0,77.9,70.3,76.6,73.2,68.7,99,87,56,29.89,29.80,12,1,13,0.00
2013-9-2,75.1,73.6,71.6,74.2,73.0,71.3,99,98,97,29.83,29.77,6,0,6,0.24
2013-9-4,64.3,63.2,61.6,60.4,59.8,59.2,93,89,86,30.04,30.03,3,0,3,0.00
2013-9-5,83.8,68.0,54.5,67.7,60.1,49.8,99,78,54,30.15,30.00,7,0,7,0.00
2013-9-6,77.0,60.2,47.8,55.6,50.4,46.2,97,74,38,30.27,30.15,6,0,6,0.00
2013-9-7,80.3,61.8,43.1,60.3,51.4,42.5,100,75,33,30.17,29.96,7,0,7,0.00
2013-9-8,86.8,71.3,59.1,68.5,63.1,50.1,97,77,52,30.08,29.86,8,0,8,0.00
2013-9-9,75.1,63.6,49.1,62.5,56.3,46.9,96,78,58,30.25,30.08,7,0,7,0.00
2013-9-10,86.8,75.0,62.2,75.4,70.1,61.0,98,86,67,30.23,30.10,12,1,12,0.00
2013-9-11,93.0,79.1,69.2,78.2,72.4,68.6,99,82,53,30.17,30.03,12,1,12,0.00
2013-9-12,89.0,77.6,68.8,75.8,71.7,68.2,99,83,58,30.04,29.75,13,1,14,0.00
2013-9-14,69.5,63.6,49.2,51.9,50.4,47.5,94,63,50,30.13,30.00,0,0,0,0.00
2013-9-15,76.5,66.5,54.7,56.5,52.7,49.3,97,64,42,30.27,30.14,0,0,0,0.01
2013-9-16,71.0,62.1,54.6,64.6,58.4,52.7,98,88,66,30.24,30.07,7,0,7,0.02
2013-9-17,66.0,54.5,40.6,52.6,45.0,39.5,96,73,40,30.44,30.24,9,1,9,0.00
2013-9-18,71.7,53.2,37.7,52.8,45.9,37.2,99,80,45,30.39,30.24,7,0,8,0.00
2013-9-19,78.0,58.0,40.4,59.4,50.3,39.9,100,79,42,30.25,30.11,7,0,7,0.00
2013-9-20,80.7,61.3,46.8,62.9,54.9,46.5,100,82,43,30.14,30.03,9,0,9,0.00
2013-9-21,79.5,65.4,48.2,68.8,60.2,47.6,99,85,51,30.05,29.72,15,1,16,0.05
2013-9-22,72.3,63.3,47.6,68.5,56.1,45.4,99,80,46,29.94,29.69,13,1,14,0.35
2013-9-23,68.5,53.7,40.8,50.7,45.2,39.9,98,76,45,30.08,29.94,10,0,10,0.00
2013-9-24,72.5,55.3,43.3,54.1,47.0,41.8,96,77,43,30.10,29.94,9,0,9,0.00
2013-9-25,77.3,57.9,44.4,57.0,50.0,43.8,99,79,39,29.99,29.90,4,0,4,0.00
2013-9-26,73.5,57.9,46.5,59.7,53.1,46.0,99,86,49,30.11,29.96,5,0,5,0.00
2013-9-27,70.3,58.9,48.3,59.2,53.5,47.9,100,84,55,30.28,30.11,7,0,7,0.00
2013-9-28,72.0,60.4,50.6,58.3,53.6,49.8,98,80,50,30.33,30.24,7,1,10,0.00
2013-9-29,72.3,57.5,46.8,59.6,51.0,45.9,100,82,47,30.24,30.09,8,1,8,0.01
2013-9-30,76.8,57.3,45.2,59.2,51.8,44.5,100,85,47,30.11,30.01,5,0,5,0.00
2013-10-1,82.8,64.0,50.0,63.8,57.5,49.7,100,83,49,30.07,29.96,7,0,7,0.01
2013-10-2,84.8,68.7,55.3,65.8,61.0,55.0,100,80,46,30.07,29.97,10,0,10,0.00
2013-10-3,82.6,67.3,55.0,64.4,60.0,54.5,100,80,51,30.14,30.06,4,0,6,0.00
2013-10-4,89.0,70.7,58.0,69.6,63.3,57.4,100,81,44,30.10,30.00,7,0,7,0.00
2013-10-5,84.8,69.6,63.1,71.9,66.1,62.3,99,90,65,30.10,30.04,6,0,6,0.00
2013-10-6,84.5,72.1,65.9,72.4,67.6,65.6,99,87,60,30.09,30.01,11,1,11,0.00
2013-10-7,79.3,68.8,57.9,72.6,66.6,56.5,98,93,76,30.04,29.84,25,1,25,0.52
2013-10-8,66.2,55.6,47.3,56.5,50.5,46.8,98,85,55,30.31,30.04,7,0,7,0.00
2013-10-9,62.5,56.3,49.9,54.4,51.4,47.5,95,84,69,30.34,30.24,14,2,14,0.05
2013-10-10,62.2,58.9,55.7,61.9,58.3,54.3,99,98,95,30.25,29.99,12,3,12,0.85
2013-10-11,63.4,62.3,61.5,63.1,62.0,61.0,99,99,98,30.04,29.95,13,4,13,1.72
2013-10-12,68.8,62.5,60.1,61.7,59.9,56.8,98,92,77,30.21,30.02,13,4,14,0.38
2013-10-13,65.8,59.8,50.5,60.0,55.2,49.4,97,85,67,30.37,30.21,14,4,14,0.00
2013-10-14,68.2,58.4,45.4,57.2,52.4,44.8,98,82,63,30.34,30.27,6,1,6,0.00
2013-10-15,72.5,55.8,43.3,57.0,48.4,42.4,100,81,37,30.28,30.12,6,0,6,0.01
2013-10-16,72.8,61.9,54.7,63.2,59.0,53.8,99,91,67,30.12,29.95,3,0,4,0.00
2013-10-17,75.3,65.5,60.5,66.1,62.4,59.8,99,90,68,29.96,29.76,10,1,11,0.04
2013-10-18,67.9,57.8,43.0,64.3,49.4,42.1,98,76,46,30.04,29.76,12,1,12,0.01
2013-10-19,63.9,52.1,38.8,58.3,48.5,38.3,99,89,57,30.04,29.82,6,0,6,0.04
2013-10-20,64.3,52.6,39.5,58.3,42.3,37.0,99,71,37,30.12,29.84,9,1,9,0.00
2013-10-21,69.0,49.3,35.0,51.7,41.3,34.5,100,79,36,30.20,30.03,11,0,11,0.00
2013-10-22,71.0,53.7,43.0,55.3,47.4,42.2,100,82,49,30.03,29.81,10,0,12,0.00
2013-10-23,50.4,45.2,38.1,49.4,43.7,37.1,99,94,81,29.85,29.64,4,0,4,0.46
2013-10-24,53.9,41.0,32.5,40.3,34.2,28.8,99,79,43,30.11,29.84,15,0,15,0.01
2013-10-25,55.2,40.6,29.1,37.6,33.4,28.4,98,78,46,30.31,30.11,9,0,10,0.00
2013-10-26,57.6,42.8,29.5,39.7,33.7,28.7,98,74,40,30.31,29.97,19,1,19,0.01
2013-10-27,60.1,48.2,33.4,38.5,36.0,32.0,95,65,38,30.19,29.94,12,1,12,0.00
2013-10-28,65.8,45.0,28.8,48.9,38.0,28.1,99,80,45,30.32,30.17,9,0,9,0.00
2013-10-29,63.2,47.0,37.4,49.3,42.2,35.9,97,85,56,30.40,30.31,6,1,6,0.00
2013-10-30,56.2,47.7,39.2,55.1,47.0,38.4,99,97,95,30.38,30.22,1,0,2,0.04
2013-10-31,70.5,59.7,47.6,63.5,57.0,47.3,100,91,73,30.25,29.86,11,1,12,0.03
2013-11-1,71.5,64.4,59.0,64.9,62.2,58.6,100,93,78,29.88,29.63,26,2,26,0.23
2013-11-2,68.8,59.0,51.0,60.8,52.6,44.1,100,82,44,29.84,29.64,6,0,6,0.01
2013-11-3,54.2,45.6,32.7,45.9,36.5,23.1,97,72,41,30.48,29.84,11,1,11,0.00
2013-11-4,47.9,36.9,27.5,31.7,26.8,21.2,90,68,47,30.66,30.48,10,1,10,0.00
2013-11-5,59.1,39.6,31.3,45.2,35.5,28.9,97,87,56,30.66,30.51,5,0,5,0.00
2013-11-6,65.2,50.2,30.9,57.7,45.7,30.4,99,87,58,30.52,30.12,11,1,11,0.00
2013-11-7,62.2,55.7,38.0,61.6,54.7,37.2,99,96,86,30.12,29.82,13,1,13,0.12
2013-11-8,51.4,41.1,31.2,41.0,31.0,27.4,99,69,40,30.31,30.01,14,1,17,0.00
2013-11-9,52.3,40.5,27.0,38.9,30.9,25.5,96,71,39,30.37,30.06,10,0,10,0.00
2013-11-10,63.9,49.7,40.3,40.8,35.1,29.1,88,60,31,30.16,29.90,19,1,19,0.00
2013-11-11,57.6,46.7,33.8,39.8,32.9,28.3,82,60,37,30.29,30.04,13,1,13,0.00
2013-11-12,49.9,38.7,28.8,41.5,28.9,17.3,95,69,50,30.36,29.99,14,1,15,0.01
2013-11-13,41.1,31.9,24.3,20.2,16.7,13.2,83,55,34,30.44,30.35,14,1,14,0.00
2013-11-14,57.1,39.3,24.1,30.2,22.7,11.7,89,58,19,30.38,30.25,14,1,14,0.00
2013-11-15,59.8,40.9,26.7,39.0,32.3,25.7,98,75,36,30.31,30.22,7,0,7,0.00
2013-11-16,51.0,45.0,34.1,48.1,43.2,31.5,97,93,87,30.38,30.28,4,0,4,0.07
2013-11-17,69.2,57.0,46.3,61.8,55.1,45.5,99,94,74,30.28,29.83,12,1,12,0.00
2013-11-18,67.5,58.9,46.5,64.2,44.5,28.0,99,64,29,29.86,29.69,20,2,20,0.22
2013-11-19,50.2,43.1,28.6,31.0,26.9,22.6,80,54,41,30.39,29.86,14,1,14,0.00
2013-11-20,46.4,33.3,25.8,26.6,22.2,15.2,85,66,30,30.61,30.39,7,1,7,0.00
2013-11-21,55.7,41.9,27.7,42.1,34.2,21.1,88,75,54,30.61,30.42,7,0,8,0.00
2013-11-22,59.4,52.1,42.4,54.1,49.4,40.6,98,90,80,30.42,29.97,12,0,12,0.01
2013-11-23,53.5,44.2,32.7,53.0,30.1,14.4,98,59,36,30.10,29.97,17,1,17,0.01
2013-11-24,32.6,25.8,16.7,17.4,3.8,0.0,65,39,27,30.49,30.08,20,2,20,0.00
2013-11-25,37.2,25.5,16.0,19.2,13.2,6.0,83,61,35,30.58,30.41,8,0,8,0.00
2013-11-26,58.2,38.4,27.2,57.6,32.8,19.1,99,81,52,30.41,29.68,12,1,12,0.64
2013-11-27,62.6,46.2,31.8,62.0,44.3,22.1,99,93,65,29.90,29.40,25,2,25,1.14
2013-11-28,38.7,30.6,23.0,24.8,20.1,18.0,92,67,46,30.53,29.90,19,1,19,0.00
2013-11-29,43.2,30.3,20.9,25.8,21.6,18.9,97,73,40,30.76,30.52,7,0,7,0.00
2013-11-30,41.4,31.1,20.4,30.7,24.0,15.1,85,75,64,30.76,30.39,11,1,11,0.00
2013-12-1,52.9,39.0,27.7,36.3,32.0,26.4,96,77,49,30.39,30.06,6,0,6,0.00
2013-12-2,48.4,35.2,26.5,37.2,31.4,25.5,97,87,59,30.07,29.91,4,0,4,0.00
2013-12-3,57.0,40.3,28.0,44.4,35.8,27.3,99,86,50,30.06,29.90,6,0,6,0.00
2013-12-4,58.0,45.5,30.1,49.2,41.6,29.2,98,87,70,30.15,30.05,8,0,8,0.00
2013-12-5,60.5,55.2,50.6,57.2,53.9,49.3,99,96,89,30.14,29.98,6,1,11,0.01
2013-12-6,62.9,50.9,39.2,62.3,50.3,38.7,99,98,94,30.17,29.93,11,1,11,0.42
2013-12-7,39.6,39.4,39.2,39.3,39.1,38.9,99,99,99,30.14,30.11,5,2,5,0.02
2013-12-10,33.1,29.9,24.3,32.7,29.4,23.5,99,98,97,30.23,29.92,9,0,9,0.01
2013-12-11,35.9,24.6,17.1,27.4,21.8,16.0,98,90,64,30.43,30.23,10,0,11,0.05
2013-12-12,29.1,20.3,12.6,20.8,14.5,10.4,96,79,51,30.42,30.26,10,0,10,0.00
2013-12-13,39.9,27.6,13.7,21.8,17.9,11.3,92,69,40,30.38,30.21,13,0,13,0.02
2013-12-14,51.4,35.5,23.5,51.4,32.0,21.5,100,87,67,30.44,29.67,15,1,15,0.87
2013-12-15,54.4,39.0,27.4,54.1,34.6,22.4,100,85,65,29.95,29.55,8,1,20,0.32
2013-12-16,33.7,28.6,19.6,26.6,15.9,7.6,84,61,34,30.27,29.94,15,1,15,0.00
2013-12-17,40.3,32.0,26.5,39.2,27.0,14.1,97,83,58,30.26,29.96,4,0,4,0.07
2013-12-18,39.6,29.4,22.3,27.0,22.4,19.2,95,77,45,30.26,29.95,11,1,13,0.00
2013-12-19,54.2,38.0,20.1,33.3,27.8,18.9,98,70,41,30.27,30.09,14,1,16,0.00
2013-12-20,57.3,49.8,41.4,52.5,39.6,32.5,95,69,49,30.15,30.04,17,2,17,0.00
2013-12-21,69.2,59.7,52.7,57.1,52.6,48.1,91,78,59,30.07,29.97,20,2,22,0.00
2013-12-22,72.0,63.3,58.5,65.2,60.1,57.0,96,89,79,30.04,29.91,24,3,24,0.00
2013-12-23,63.7,56.5,42.3,63.1,55.1,40.2,99,95,87,30.18,29.93,11,1,12,0.24
2013-12-24,42.2,37.5,34.0,40.3,29.7,22.1,93,74,51,30.23,30.15,12,2,12,0.00
2013-12-27,42.2,28.2,23.9,22.7,21.1,19.1,89,75,42,30.38,30.33,1,0,3,0.00
2013-12-28,57.2,38.9,22.1,33.0,27.9,20.0,97,69,35,30.36,30.14,14,1,14,0.00
2013-12-29,58.9,44.9,37.4,58.6,41.0,30.5,100,87,61,30.14,29.46,23,1,23,1.28
2013-12-30,48.0,38.4,27.3,42.7,32.7,18.2,99,81,59,30.22,29.79,13,1,15,0.00
2013-12-31,40.5,30.6,22.5,28.6,20.4,16.7,84,66,52,30.36,30.11,14,1,14,0.00
2014-1-1,45.2,29.8,17.1,28.6,21.9,15.4,95,75,40,30.46,30.22,11,0,11,0.00
2014-1-2,35.2,31.6,25.6,33.7,30.1,24.6,97,94,89,30.22,29.60,10,2,10,0.00